# 都内の環境放射線測定結果
# 測定場所：東京都新宿区百人町
# http://ftp.jaist.ac.jp/pub/emergency/monitoring.tokyo-eiken.go.jp/monitoring/index.html
Date,Max,Min,Average
2011-03-01 00:00,0.0461,0.0313,0.0368
2011-03-02 00:00,0.0419,0.0311,0.0344
2011-03-03 00:00,0.0377,0.0304,0.0340
2011-03-04 00:00,0.0375,0.0310,0.0339
2011-03-05 00:00,0.0374,0.0304,0.0339
2011-03-06 00:00,0.0377,0.0308,0.0343
2011-03-07 00:00,0.0440,0.0308,0.0366
2011-03-08 00:00,0.0388,0.0312,0.0343
2011-03-09 00:00,0.0379,0.0311,0.0343
2011-03-10 00:00,0.0372,0.0307,0.0338
2011-03-11 00:00,0.0376,0.0308,0.0341
2011-03-12 00:00,0.0384,0.0305,0.0342
2011-03-13 00:00,0.0383,0.0314,0.0343
2011-03-14 00:00,0.0377,0.0304,0.0341
2011-03-15 00:00,0.0367,0.0322,0.0345
2011-03-15 01:00,0.0372,0.0329,0.0347
2011-03-15 02:00,0.0373,0.0318,0.0345
2011-03-15 03:00,0.0384,0.0319,0.0347
2011-03-15 04:00,0.147,0.0360,0.100
2011-03-15 05:00,0.112,0.0562,0.0875
2011-03-15 06:00,0.0576,0.0438,0.0495
2011-03-15 07:00,0.0507,0.0412,0.0453
2011-03-15 08:00,0.123,0.0403,0.0573
2011-03-15 09:00,0.465,0.122,0.202
2011-03-15 10:00,0.809,0.160,0.496
2011-03-15 11:00,0.151,0.0781,0.106
2011-03-15 12:00,0.0777,0.0663,0.0713
2011-03-15 13:00,0.0722,0.0624,0.0658
2011-03-15 14:00,0.0752,0.0681,0.0716
2011-03-15 15:00,0.0715,0.0646,0.0682
2011-03-15 16:00,0.0749,0.0646,0.0682
2011-03-15 17:00,0.157,0.0669,0.0941
2011-03-15 18:00,0.320,0.113,0.200
2011-03-15 19:00,0.458,0.165,0.361
2011-03-15 20:00,0.168,0.0955,0.123
2011-03-15 21:00,0.0980,0.0761,0.0888
2011-03-15 22:00,0.0763,0.0575,0.0657
2011-03-15 23:00,0.0599,0.0530,0.0556
2011-03-16 00:00,0.0559,0.0514,0.0538
2011-03-16 01:00,0.0607,0.0506,0.0547
2011-03-16 02:00,0.0951,0.0589,0.0672
2011-03-16 03:00,0.126,0.0845,0.101
2011-03-16 04:00,0.151,0.124,0.141
2011-03-16 05:00,0.160,0.128,0.143
2011-03-16 06:00,0.161,0.111,0.142
2011-03-16 07:00,0.110,0.0975,0.104
2011-03-16 08:00,0.103,0.0693,0.0891
2011-03-16 09:00,0.0870,0.0555,0.0688
2011-03-16 10:00,0.0702,0.0546,0.0582
2011-03-16 11:00,0.0632,0.0537,0.0565
2011-03-16 12:00,0.0654,0.0530,0.0562
2011-03-16 13:00,0.0569,0.0529,0.0547
2011-03-16 14:00,0.0569,0.0513,0.0541
2011-03-16 15:00,0.0570,0.0520,0.0542
2011-03-16 16:00,0.0575,0.0517,0.0539
2011-03-16 17:00,0.0572,0.0504,0.0534
2011-03-16 18:00,0.0562,0.0507,0.0532
2011-03-16 19:00,0.0565,0.0509,0.0533
2011-03-16 20:00,0.0555,0.0511,0.0532
2011-03-16 21:00,0.0569,0.0506,0.0532
2011-03-16 22:00,0.0558,0.0508,0.0532
2011-03-16 23:00,0.0553,0.0499,0.0529
2011-03-17 00:00,0.0562,0.0503,0.0530
2011-03-17 01:00,0.0557,0.0501,0.0526
2011-03-17 02:00,0.0549,0.0500,0.0524
2011-03-17 03:00,0.0551,0.0499,0.0523
2011-03-17 04:00,0.0555,0.0490,0.0523
2011-03-17 05:00,0.0544,0.0497,0.0521
2011-03-17 06:00,0.0549,0.0498,0.0519
2011-03-17 07:00,0.0539,0.0498,0.0520
2011-03-17 08:00,0.0551,0.0489,0.0516
2011-03-17 09:00,0.0538,0.0485,0.0515
2011-03-17 10:00,0.0544,0.0489,0.0514
2011-03-17 11:00,0.0532,0.0489,0.0511
2011-03-17 12:00,0.0533,0.0486,0.0508
2011-03-17 13:00,0.0545,0.0486,0.0507
2011-03-17 14:00,0.0526,0.0488,0.0506
2011-03-17 15:00,0.0526,0.0488,0.0503
2011-03-17 16:00,0.0523,0.0478,0.0502
2011-03-17 17:00,0.0524,0.0475,0.0498
2011-03-17 18:00,0.0520,0.0475,0.0501
2011-03-17 19:00,0.0537,0.0472,0.0499
2011-03-17 20:00,0.0523,0.0478,0.0498
2011-03-17 21:00,0.0525,0.0473,0.0497
2011-03-17 22:00,0.0525,0.0480,0.0500
2011-03-17 23:00,0.0523,0.0460,0.0497
2011-03-18 00:00,0.0530,0.0474,0.0500
2011-03-18 01:00,0.0520,0.0474,0.0498
2011-03-18 02:00,0.0523,0.0471,0.0493
2011-03-18 03:00,0.0524,0.0464,0.0496
2011-03-18 04:00,0.0523,0.0464,0.0489
2011-03-18 05:00,0.0515,0.0468,0.0490
2011-03-18 06:00,0.0508,0.0464,0.0489
2011-03-18 07:00,0.0513,0.0468,0.0493
2011-03-18 08:00,0.0518,0.0465,0.0489
2011-03-18 09:00,0.0506,0.0466,0.0486
2011-03-18 10:00,0.0509,0.0455,0.0483
2011-03-18 11:00,0.0515,0.0454,0.0485
2011-03-18 12:00,0.0507,0.0466,0.0485
2011-03-18 13:00,0.0509,0.0464,0.0486
2011-03-18 14:00,0.0506,0.0457,0.0484
2011-03-18 15:00,0.0502,0.0457,0.0481
2011-03-18 16:00,0.0500,0.0461,0.0481
2011-03-18 17:00,0.0496,0.0452,0.0474
2011-03-18 18:00,0.0499,0.0456,0.0475
2011-03-18 19:00,0.0491,0.0447,0.0472
2011-03-18 20:00,0.0498,0.0450,0.0473
2011-03-18 21:00,0.0505,0.0445,0.0472
2011-03-18 22:00,0.0492,0.0443,0.0470
2011-03-18 23:00,0.0492,0.0450,0.0471
2011-03-19 00:00,0.0491,0.0436,0.0469
2011-03-19 01:00,0.0499,0.0440,0.0469
2011-03-19 02:00,0.0493,0.0449,0.0469
2011-03-19 03:00,0.0503,0.0444,0.0475
2011-03-19 04:00,0.0498,0.0447,0.0472
2011-03-19 05:00,0.0487,0.0438,0.0468
2011-03-19 06:00,0.0494,0.0444,0.0472
2011-03-19 07:00,0.0499,0.0439,0.0475
2011-03-19 08:00,0.0496,0.0447,0.0473
2011-03-19 09:00,0.0500,0.0454,0.0476
2011-03-19 10:00,0.0496,0.0445,0.0473
2011-03-19 11:00,0.0491,0.0447,0.0470
2011-03-19 12:00,0.0493,0.0450,0.0469
2011-03-19 13:00,0.0499,0.0450,0.0470
2011-03-19 14:00,0.0487,0.0427,0.0465
2011-03-19 15:00,0.0489,0.0433,0.0462
2011-03-19 16:00,0.0493,0.0435,0.0461
2011-03-19 17:00,0.0499,0.0443,0.0462
2011-03-19 18:00,0.0492,0.0433,0.0463
2011-03-19 19:00,0.0478,0.0445,0.0460
2011-03-19 20:00,0.0483,0.0433,0.0461
2011-03-19 21:00,0.0485,0.0443,0.0462
2011-03-19 22:00,0.0491,0.0426,0.0460
2011-03-19 23:00,0.0488,0.0435,0.0459
2011-03-20 00:00,0.0487,0.0433,0.0460
2011-03-20 01:00,0.0492,0.0441,0.0459
2011-03-20 02:00,0.0477,0.0440,0.0459
2011-03-20 03:00,0.0485,0.0435,0.0460
2011-03-20 04:00,0.0481,0.0429,0.0457
2011-03-20 05:00,0.0485,0.0433,0.0459
2011-03-20 06:00,0.0485,0.0443,0.0461
2011-03-20 07:00,0.0492,0.0439,0.0458
2011-03-20 08:00,0.0489,0.0436,0.0458
2011-03-20 09:00,0.0492,0.0441,0.0462
2011-03-20 10:00,0.0489,0.0433,0.0457
2011-03-20 11:00,0.0482,0.0438,0.0459
2011-03-20 12:00,0.0475,0.0433,0.0453
2011-03-20 13:00,0.0488,0.0419,0.0451
2011-03-20 14:00,0.0472,0.0421,0.0448
2011-03-20 15:00,0.0480,0.0423,0.0452
2011-03-20 16:00,0.0472,0.0431,0.0453
2011-03-20 17:00,0.0484,0.0422,0.0448
2011-03-20 18:00,0.0473,0.0415,0.0444
2011-03-20 19:00,0.0468,0.0425,0.0445
2011-03-20 20:00,0.0470,0.0414,0.0443
2011-03-20 21:00,0.0464,0.0416,0.0443
2011-03-20 22:00,0.0524,0.0405,0.0478
2011-03-20 23:00,0.0515,0.0465,0.0494
2011-03-21 00:00,0.0529,0.0478,0.0505
2011-03-21 01:00,0.0548,0.0475,0.0511
2011-03-21 02:00,0.0522,0.0470,0.0497
2011-03-21 03:00,0.0527,0.0474,0.0497
2011-03-21 04:00,0.0553,0.0485,0.0513
2011-03-21 05:00,0.0548,0.0493,0.0519
2011-03-21 06:00,0.0591,0.0503,0.0537
2011-03-21 07:00,0.0625,0.0539,0.0585
2011-03-21 08:00,0.0930,0.0588,0.0703
2011-03-21 09:00,0.101,0.0910,0.0958
2011-03-21 10:00,0.105,0.0944,0.100
2011-03-21 11:00,0.120,0.101,0.109
2011-03-21 12:00,0.120,0.106,0.113
2011-03-21 13:00,0.111,0.104,0.108
2011-03-21 14:00,0.116,0.106,0.112
2011-03-21 15:00,0.126,0.113,0.118
2011-03-21 16:00,0.131,0.120,0.125
2011-03-21 17:00,0.139,0.128,0.134
2011-03-21 18:00,0.139,0.130,0.135
2011-03-21 19:00,0.137,0.131,0.134
2011-03-21 20:00,0.141,0.131,0.137
2011-03-21 21:00,0.140,0.133,0.137
2011-03-21 22:00,0.145,0.136,0.141
2011-03-21 23:00,0.147,0.137,0.141
2011-03-22 00:00,0.148,0.136,0.142
2011-03-22 01:00,0.140,0.133,0.137
2011-03-22 02:00,0.138,0.130,0.134
2011-03-22 03:00,0.138,0.130,0.134
2011-03-22 04:00,0.136,0.131,0.133
2011-03-22 05:00,0.136,0.129,0.133
2011-03-22 06:00,0.134,0.126,0.131
2011-03-22 07:00,0.134,0.126,0.129
2011-03-22 08:00,0.133,0.125,0.128
2011-03-22 09:00,0.132,0.123,0.127
2011-03-22 10:00,0.131,0.124,0.127
2011-03-22 11:00,0.132,0.124,0.128
2011-03-22 12:00,0.134,0.124,0.128
2011-03-22 13:00,0.134,0.126,0.130
2011-03-22 14:00,0.142,0.132,0.137
2011-03-22 15:00,0.142,0.136,0.139
2011-03-22 16:00,0.143,0.135,0.138
2011-03-22 17:00,0.142,0.135,0.138
2011-03-22 18:00,0.144,0.136,0.140
2011-03-22 19:00,0.145,0.136,0.141
2011-03-22 20:00,0.166,0.140,0.155
2011-03-22 21:00,0.155,0.146,0.151
2011-03-22 22:00,0.160,0.146,0.151
2011-03-22 23:00,0.158,0.150,0.154
2011-03-23 00:00,0.158,0.150,0.154
2011-03-23 01:00,0.158,0.147,0.152
2011-03-23 02:00,0.158,0.149,0.152
2011-03-23 03:00,0.153,0.145,0.149
2011-03-23 04:00,0.152,0.142,0.148
2011-03-23 05:00,0.151,0.143,0.147
2011-03-23 06:00,0.151,0.142,0.147
2011-03-23 07:00,0.150,0.143,0.146
2011-03-23 08:00,0.150,0.143,0.146
2011-03-23 09:00,0.149,0.142,0.146
2011-03-23 10:00,0.150,0.143,0.145
2011-03-23 11:00,0.147,0.141,0.145
2011-03-23 12:00,0.148,0.140,0.144
2011-03-23 13:00,0.148,0.138,0.144
2011-03-23 14:00,0.147,0.138,0.143
2011-03-23 15:00,0.146,0.139,0.143
2011-03-23 16:00,0.150,0.139,0.146
2011-03-23 17:00,0.150,0.139,0.145
2011-03-23 18:00,0.147,0.139,0.144
2011-03-23 19:00,0.154,0.143,0.147
2011-03-23 20:00,0.152,0.144,0.148
2011-03-23 21:00,0.150,0.141,0.146
2011-03-23 22:00,0.147,0.139,0.143
2011-03-23 23:00,0.145,0.137,0.141
2011-03-24 00:00,0.144,0.137,0.140
2011-03-24 01:00,0.143,0.137,0.140
2011-03-24 02:00,0.143,0.136,0.139
2011-03-24 03:00,0.144,0.137,0.139
2011-03-24 04:00,0.143,0.136,0.139
2011-03-24 05:00,0.143,0.136,0.139
2011-03-24 06:00,0.142,0.133,0.139
2011-03-24 07:00,0.142,0.134,0.139
2011-03-24 08:00,0.142,0.136,0.139
2011-03-24 09:00,0.143,0.134,0.138
2011-03-24 10:00,0.141,0.133,0.138
2011-03-24 11:00,0.142,0.134,0.138
2011-03-24 12:00,0.141,0.134,0.138
2011-03-24 13:00,0.142,0.133,0.137
2011-03-24 14:00,0.139,0.132,0.136
2011-03-24 15:00,0.140,0.133,0.136
2011-03-24 16:00,0.139,0.132,0.136
2011-03-24 17:00,0.139,0.132,0.135
2011-03-24 18:00,0.137,0.131,0.134
2011-03-24 19:00,0.137,0.130,0.134
2011-03-24 20:00,0.138,0.129,0.134
2011-03-24 21:00,0.138,0.130,0.135
2011-03-24 22:00,0.139,0.131,0.135
2011-03-24 23:00,0.138,0.132,0.134
2011-03-25 00:00,0.138,0.131,0.134
2011-03-25 01:00,0.137,0.131,0.134
2011-03-25 02:00,0.138,0.131,0.134
2011-03-25 03:00,0.137,0.129,0.133
2011-03-25 04:00,0.136,0.130,0.132
2011-03-25 05:00,0.135,0.129,0.132
2011-03-25 06:00,0.137,0.129,0.132
2011-03-25 07:00,0.137,0.129,0.132
2011-03-25 08:00,0.135,0.129,0.132
2011-03-25 09:00,0.135,0.129,0.132
2011-03-25 10:00,0.138,0.128,0.132
2011-03-25 11:00,0.133,0.126,0.129
2011-03-25 12:00,0.134,0.127,0.130
2011-03-25 13:00,0.133,0.126,0.130
2011-03-25 14:00,0.133,0.127,0.129
2011-03-25 15:00,0.131,0.126,0.129
2011-03-25 16:00,0.133,0.123,0.127
2011-03-25 17:00,0.132,0.124,0.127
2011-03-25 18:00,0.130,0.124,0.126
2011-03-25 19:00,0.130,0.123,0.126
2011-03-25 20:00,0.129,0.123,0.126
2011-03-25 21:00,0.129,0.122,0.126
2011-03-25 22:00,0.129,0.122,0.125
2011-03-25 23:00,0.129,0.122,0.125
2011-03-26 00:00,0.128,0.121,0.125
2011-03-26 01:00,0.129,0.121,0.125
2011-03-26 02:00,0.130,0.123,0.126
2011-03-26 03:00,0.129,0.123,0.126
2011-03-26 04:00,0.130,0.121,0.126
2011-03-26 05:00,0.128,0.121,0.124
2011-03-26 06:00,0.128,0.120,0.124
2011-03-26 07:00,0.128,0.120,0.124
2011-03-26 08:00,0.126,0.120,0.123
2011-03-26 09:00,0.125,0.119,0.122
2011-03-26 10:00,0.125,0.119,0.122
2011-03-26 11:00,0.125,0.117,0.122
2011-03-26 12:00,0.125,0.118,0.122
2011-03-26 13:00,0.125,0.117,0.121
2011-03-26 14:00,0.123,0.117,0.121
2011-03-26 15:00,0.125,0.117,0.120
2011-03-26 16:00,0.124,0.117,0.120
2011-03-26 17:00,0.122,0.115,0.119
2011-03-26 18:00,0.123,0.116,0.118
2011-03-26 19:00,0.121,0.116,0.119
2011-03-26 20:00,0.122,0.116,0.119
2011-03-26 21:00,0.123,0.116,0.119
2011-03-26 22:00,0.122,0.115,0.119
2011-03-26 23:00,0.122,0.114,0.119
2011-03-27 00:00,0.122,0.114,0.118
2011-03-27 01:00,0.122,0.115,0.118
2011-03-27 02:00,0.121,0.114,0.118
2011-03-27 03:00,0.121,0.112,0.117
2011-03-27 04:00,0.120,0.113,0.117
2011-03-27 05:00,0.120,0.113,0.117
2011-03-27 06:00,0.120,0.114,0.117
2011-03-27 07:00,0.121,0.114,0.118
2011-03-27 08:00,0.119,0.112,0.117
2011-03-27 09:00,0.120,0.112,0.116
2011-03-27 10:00,0.120,0.114,0.116
2011-03-27 11:00,0.120,0.111,0.116
2011-03-27 12:00,0.120,0.112,0.116
2011-03-27 13:00,0.119,0.113,0.116
2011-03-27 14:00,0.119,0.112,0.116
2011-03-27 15:00,0.118,0.112,0.115
2011-03-27 16:00,0.117,0.112,0.114
2011-03-27 17:00,0.117,0.111,0.114
2011-03-27 18:00,0.116,0.110,0.114
2011-03-27 19:00,0.116,0.111,0.114
2011-03-27 20:00,0.117,0.110,0.113
2011-03-27 21:00,0.117,0.108,0.113
2011-03-27 22:00,0.115,0.108,0.112
2011-03-27 23:00,0.116,0.109,0.112
2011-03-28 00:00,0.116,0.109,0.112
2011-03-28 01:00,0.117,0.109,0.113
2011-03-28 02:00,0.115,0.110,0.113
2011-03-28 03:00,0.115,0.109,0.112
2011-03-28 04:00,0.116,0.110,0.112
2011-03-28 05:00,0.114,0.109,0.112
2011-03-28 06:00,0.116,0.108,0.112
2011-03-28 07:00,0.116,0.109,0.112
2011-03-28 08:00,0.115,0.108,0.112
2011-03-28 09:00,0.115,0.108,0.112
2011-03-28 10:00,0.114,0.109,0.112
2011-03-28 11:00,0.114,0.109,0.112
2011-03-28 12:00,0.114,0.108,0.111
2011-03-28 13:00,0.114,0.109,0.111
2011-03-28 14:00,0.115,0.108,0.111
2011-03-28 15:00,0.114,0.108,0.111
2011-03-28 16:00,0.114,0.108,0.111
2011-03-28 17:00,0.113,0.104,0.109
2011-03-28 18:00,0.112,0.106,0.108
2011-03-28 19:00,0.111,0.105,0.109
2011-03-28 20:00,0.111,0.105,0.109
2011-03-28 21:00,0.111,0.105,0.108
2011-03-28 22:00,0.111,0.104,0.109
2011-03-28 23:00,0.111,0.104,0.108
2011-03-29 00:00,0.112,0.105,0.108
2011-03-29 01:00,0.112,0.105,0.108
2011-03-29 02:00,0.111,0.103,0.107
2011-03-29 03:00,0.111,0.105,0.108
2011-03-29 04:00,0.111,0.104,0.108
2011-03-29 05:00,0.111,0.105,0.108
2011-03-29 06:00,0.110,0.104,0.108
2011-03-29 07:00,0.114,0.105,0.108
2011-03-29 08:00,0.112,0.105,0.108
2011-03-29 09:00,0.112,0.105,0.108
2011-03-29 10:00,0.111,0.105,0.108
2011-03-29 11:00,0.112,0.104,0.108
2011-03-29 12:00,0.111,0.105,0.108
2011-03-29 13:00,0.111,0.104,0.108
2011-03-29 14:00,0.111,0.104,0.107
2011-03-29 15:00,0.110,0.102,0.107
2011-03-29 16:00,0.110,0.102,0.106
2011-03-29 17:00,0.109,0.102,0.105
2011-03-29 18:00,0.109,0.102,0.105
2011-03-29 19:00,0.108,0.103,0.105
2011-03-29 20:00,0.108,0.101,0.105
2011-03-29 21:00,0.108,0.101,0.105
2011-03-29 22:00,0.109,0.102,0.105
2011-03-29 23:00,0.109,0.103,0.105
2011-03-30 00:00,0.107,0.100,0.105
2011-03-30 01:00,0.108,0.102,0.105
2011-03-30 02:00,0.108,0.100,0.104
2011-03-30 03:00,0.108,0.102,0.104
2011-03-30 04:00,0.108,0.101,0.104
2011-03-30 05:00,0.107,0.0993,0.104
2011-03-30 06:00,0.108,0.101,0.105
2011-03-30 07:00,0.109,0.102,0.106
2011-03-30 08:00,0.112,0.104,0.108
2011-03-30 09:00,0.113,0.106,0.110
2011-03-30 10:00,0.112,0.104,0.108
2011-03-30 11:00,0.110,0.103,0.107
2011-03-30 12:00,0.108,0.102,0.105
2011-03-30 13:00,0.107,0.101,0.104
2011-03-30 14:00,0.108,0.0997,0.103
2011-03-30 15:00,0.106,0.100,0.103
2011-03-30 16:00,0.107,0.0993,0.103
2011-03-30 17:00,0.105,0.0993,0.102
2011-03-30 18:00,0.106,0.101,0.103
2011-03-30 19:00,0.105,0.0992,0.102
2011-03-30 20:00,0.106,0.0993,0.102
2011-03-30 21:00,0.106,0.0992,0.102
2011-03-30 22:00,0.105,0.0982,0.102
2011-03-30 23:00,0.104,0.0974,0.101
2011-03-31 00:00,0.104,0.0969,0.101
2011-03-31 01:00,0.103,0.0971,0.101
2011-03-31 02:00,0.104,0.0967,0.101
2011-03-31 03:00,0.104,0.0966,0.101
2011-03-31 04:00,0.103,0.0979,0.100
2011-03-31 05:00,0.104,0.0986,0.101
2011-03-31 06:00,0.104,0.0972,0.101
2011-03-31 07:00,0.104,0.0977,0.101
2011-03-31 08:00,0.105,0.0975,0.102
2011-03-31 09:00,0.105,0.0990,0.101
2011-03-31 10:00,0.104,0.0974,0.102
2011-03-31 11:00,0.104,0.0989,0.102
2011-03-31 12:00,0.106,0.0979,0.101
2011-03-31 13:00,0.104,0.0983,0.101
2011-03-31 14:00,0.109,0.0989,0.103
2011-03-31 15:00,0.108,0.100,0.103
2011-03-31 16:00,0.104,0.0974,0.101
2011-03-31 17:00,0.103,0.0954,0.0990
2011-03-31 18:00,0.102,0.0958,0.0989
2011-03-31 19:00,0.101,0.0953,0.0990
2011-03-31 20:00,0.102,0.0951,0.0982
2011-03-31 21:00,0.101,0.0952,0.0980
2011-03-31 22:00,0.101,0.0951,0.0984
2011-03-31 23:00,0.101,0.0949,0.0975
2011-04-01 00:00,0.100,0.0953,0.0979
2011-04-01 01:00,0.101,0.0941,0.0976
2011-04-01 02:00,0.101,0.0945,0.0981
2011-04-01 03:00,0.102,0.0950,0.0979
2011-04-01 04:00,0.101,0.0948,0.0980
2011-04-01 05:00,0.101,0.0938,0.0978
2011-04-01 06:00,0.100,0.0943,0.0976
2011-04-01 07:00,0.102,0.0944,0.0979
2011-04-01 08:00,0.103,0.0956,0.0986
2011-04-01 09:00,0.102,0.0958,0.0989
2011-04-01 10:00,0.101,0.0961,0.0986
2011-04-01 11:00,0.103,0.0952,0.0984
2011-04-01 12:00,0.102,0.0950,0.0984
2011-04-01 13:00,0.103,0.0948,0.0984
2011-04-01 14:00,0.101,0.0919,0.0966
2011-04-01 15:00,0.100,0.0930,0.0971
2011-04-01 16:00,0.101,0.0935,0.0965
2011-04-01 17:00,0.0985,0.0930,0.0957
2011-04-01 18:00,0.0985,0.0919,0.0954
2011-04-01 19:00,0.0987,0.0926,0.0954
2011-04-01 20:00,0.0991,0.0912,0.0954
2011-04-01 21:00,0.0981,0.0916,0.0948
2011-04-01 22:00,0.0983,0.0926,0.0952
2011-04-01 23:00,0.0981,0.0920,0.0952
2011-04-02 00:00,0.0994,0.0920,0.0952
2011-04-02 01:00,0.0986,0.0911,0.0948
2011-04-02 02:00,0.0977,0.0913,0.0948
2011-04-02 03:00,0.0979,0.0920,0.0951
2011-04-02 04:00,0.0986,0.0923,0.0947
2011-04-02 05:00,0.0981,0.0912,0.0948
2011-04-02 06:00,0.0989,0.0916,0.0950
2011-04-02 07:00,0.0984,0.0916,0.0955
2011-04-02 08:00,0.0987,0.0916,0.0961
2011-04-02 09:00,0.0992,0.0933,0.0960
2011-04-02 10:00,0.0993,0.0927,0.0962
2011-04-02 11:00,0.0989,0.0929,0.0960
2011-04-02 12:00,0.0994,0.0929,0.0953
2011-04-02 13:00,0.0994,0.0923,0.0958
2011-04-02 14:00,0.0986,0.0925,0.0955
2011-04-02 15:00,0.0975,0.0916,0.0945
2011-04-02 16:00,0.0969,0.0907,0.0940
2011-04-02 17:00,0.0979,0.0917,0.0941
2011-04-02 18:00,0.0975,0.0895,0.0938
2011-04-02 19:00,0.0972,0.0908,0.0941
2011-04-02 20:00,0.0963,0.0892,0.0932
2011-04-02 21:00,0.0963,0.0904,0.0931
2011-04-02 22:00,0.0963,0.0889,0.0924
2011-04-02 23:00,0.0951,0.0884,0.0920
2011-04-03 00:00,0.0951,0.0890,0.0920
2011-04-03 01:00,0.0946,0.0892,0.0918
2011-04-03 02:00,0.0951,0.0885,0.0914
2011-04-03 03:00,0.0957,0.0886,0.0913
2011-04-03 04:00,0.0944,0.0877,0.0913
2011-04-03 05:00,0.0951,0.0882,0.0909
2011-04-03 06:00,0.0942,0.0885,0.0910
2011-04-03 07:00,0.0944,0.0875,0.0908
2011-04-03 08:00,0.0942,0.0886,0.0909
2011-04-03 09:00,0.0937,0.0882,0.0912
2011-04-03 10:00,0.0941,0.0877,0.0909
2011-04-03 11:00,0.0927,0.0882,0.0909
2011-04-03 12:00,0.0951,0.0878,0.0912
2011-04-03 13:00,0.0941,0.0878,0.0909
2011-04-03 14:00,0.0939,0.0869,0.0907
2011-04-03 15:00,0.0953,0.0876,0.0908
2011-04-03 16:00,0.0937,0.0875,0.0907
2011-04-03 17:00,0.0941,0.0881,0.0907
2011-04-03 18:00,0.0935,0.0871,0.0903
2011-04-03 19:00,0.0937,0.0872,0.0903
2011-04-03 20:00,0.0936,0.0870,0.0904
2011-04-03 21:00,0.0937,0.0874,0.0902
2011-04-03 22:00,0.0929,0.0853,0.0896
2011-04-03 23:00,0.0933,0.0876,0.0900
2011-04-04 00:00,0.0929,0.0868,0.0899
2011-04-04 01:00,0.0929,0.0875,0.0898
2011-04-04 02:00,0.0927,0.0876,0.0902
2011-04-04 03:00,0.0935,0.0872,0.0905
2011-04-04 04:00,0.0935,0.0866,0.0902
2011-04-04 05:00,0.0926,0.0863,0.0900
2011-04-04 06:00,0.0927,0.0869,0.0900
2011-04-04 07:00,0.0931,0.0877,0.0902
2011-04-04 08:00,0.0934,0.0871,0.0897
2011-04-04 09:00,0.0932,0.0875,0.0902
2011-04-04 10:00,0.0934,0.0885,0.0901
2011-04-04 11:00,0.0934,0.0869,0.0903
2011-04-04 12:00,0.0935,0.0869,0.0903
2011-04-04 13:00,0.0927,0.0869,0.0897
2011-04-04 14:00,0.0927,0.0853,0.0899
2011-04-04 15:00,0.0924,0.0857,0.0894
2011-04-04 16:00,0.0915,0.0857,0.0888
2011-04-04 17:00,0.0910,0.0857,0.0883
2011-04-04 18:00,0.0923,0.0850,0.0885
2011-04-04 19:00,0.0913,0.0857,0.0882
2011-04-04 20:00,0.0913,0.0851,0.0885
2011-04-04 21:00,0.0909,0.0847,0.0880
2011-04-04 22:00,0.0906,0.0846,0.0881
2011-04-04 23:00,0.0920,0.0850,0.0885
2011-04-05 00:00,0.0921,0.0863,0.0889
2011-04-05 01:00,0.0918,0.0857,0.0889
2011-04-05 02:00,0.0913,0.0850,0.0886
2011-04-05 03:00,0.0917,0.0854,0.0885
2011-04-05 04:00,0.0905,0.0840,0.0879
2011-04-05 05:00,0.0909,0.0861,0.0887
2011-04-05 06:00,0.0913,0.0862,0.0887
2011-04-05 07:00,0.0914,0.0856,0.0891
2011-04-05 08:00,0.0927,0.0850,0.0891
2011-04-05 09:00,0.0940,0.0866,0.0893
2011-04-05 10:00,0.0923,0.0866,0.0889
2011-04-05 11:00,0.0935,0.0857,0.0895
2011-04-05 12:00,0.0919,0.0858,0.0889
2011-04-05 13:00,0.0930,0.0862,0.0893
2011-04-05 14:00,0.0919,0.0864,0.0889
2011-04-05 15:00,0.0913,0.0860,0.0887
2011-04-05 16:00,0.0923,0.0847,0.0886
2011-04-05 17:00,0.0906,0.0855,0.0878
2011-04-05 18:00,0.0905,0.0839,0.0873
2011-04-05 19:00,0.0909,0.0849,0.0873
2011-04-05 20:00,0.0901,0.0839,0.0874
2011-04-05 21:00,0.0913,0.0844,0.0874
2011-04-05 22:00,0.0898,0.0820,0.0869
2011-04-05 23:00,0.0904,0.0843,0.0870
2011-04-06 00:00,0.0895,0.0836,0.0870
2011-04-06 01:00,0.0905,0.0843,0.0875
2011-04-06 02:00,0.0909,0.0833,0.0874
2011-04-06 03:00,0.0919,0.0850,0.0873
2011-04-06 04:00,0.0896,0.0840,0.0871
2011-04-06 05:00,0.0908,0.0835,0.0868
2011-04-06 06:00,0.0913,0.0847,0.0881
2011-04-06 07:00,0.0920,0.0854,0.0883
2011-04-06 08:00,0.0919,0.0851,0.0888
2011-04-06 09:00,0.0916,0.0857,0.0886
2011-04-06 10:00,0.0915,0.0855,0.0883
2011-04-06 11:00,0.0913,0.0851,0.0881
2011-04-06 12:00,0.0912,0.0842,0.0877
2011-04-06 13:00,0.0900,0.0841,0.0875
2011-04-06 14:00,0.0916,0.0845,0.0874
2011-04-06 15:00,0.0900,0.0829,0.0871
2011-04-06 16:00,0.0897,0.0835,0.0869
2011-04-06 17:00,0.0903,0.0823,0.0865
2011-04-06 18:00,0.0902,0.0829,0.0862
2011-04-06 19:00,0.0897,0.0835,0.0866
2011-04-06 20:00,0.0906,0.0826,0.0866
2011-04-06 21:00,0.0893,0.0833,0.0865
2011-04-06 22:00,0.0901,0.0836,0.0861
2011-04-06 23:00,0.0902,0.0836,0.0864
2011-04-07 00:00,0.0894,0.0833,0.0865
2011-04-07 01:00,0.0895,0.0833,0.0865
2011-04-07 02:00,0.0892,0.0836,0.0862
2011-04-07 03:00,0.0899,0.0839,0.0869
2011-04-07 04:00,0.0893,0.0843,0.0867
2011-04-07 05:00,0.0909,0.0835,0.0863
2011-04-07 06:00,0.0895,0.0826,0.0864
2011-04-07 07:00,0.0908,0.0840,0.0867
2011-04-07 08:00,0.0902,0.0847,0.0876
2011-04-07 09:00,0.0894,0.0846,0.0871
2011-04-07 10:00,0.0886,0.0833,0.0863
2011-04-07 11:00,0.0912,0.0838,0.0867
2011-04-07 12:00,0.0897,0.0830,0.0868
2011-04-07 13:00,0.0888,0.0836,0.0863
2011-04-07 14:00,0.0885,0.0837,0.0861
2011-04-07 15:00,0.0895,0.0822,0.0861
2011-04-07 16:00,0.0891,0.0826,0.0858
2011-04-07 17:00,0.0883,0.0811,0.0849
2011-04-07 18:00,0.0880,0.0825,0.0850
2011-04-07 19:00,0.0890,0.0819,0.0854
2011-04-07 20:00,0.0883,0.0833,0.0856
2011-04-07 21:00,0.0876,0.0822,0.0850
2011-04-07 22:00,0.0871,0.0807,0.0847
2011-04-07 23:00,0.0881,0.0825,0.0850
2011-04-08 00:00,0.0878,0.0825,0.0851
2011-04-08 01:00,0.0882,0.0819,0.0849
2011-04-08 02:00,0.0879,0.0815,0.0850
2011-04-08 03:00,0.0877,0.0814,0.0846
2011-04-08 04:00,0.0882,0.0821,0.0849
2011-04-08 05:00,0.0886,0.0821,0.0845
2011-04-08 06:00,0.0876,0.0818,0.0850
2011-04-08 07:00,0.0880,0.0818,0.0853
2011-04-08 08:00,0.0894,0.0813,0.0854
2011-04-08 09:00,0.0889,0.0816,0.0852
2011-04-08 10:00,0.0875,0.0816,0.0848
2011-04-08 11:00,0.0869,0.0820,0.0847
2011-04-08 12:00,0.0869,0.0832,0.0851
2011-04-08 13:00,0.0889,0.0826,0.0851
2011-04-08 14:00,0.0885,0.0824,0.0850
2011-04-08 15:00,0.0884,0.0814,0.0849
2011-04-08 16:00,0.0877,0.0788,0.0844
2011-04-08 17:00,0.0867,0.0809,0.0845
2011-04-08 18:00,0.0874,0.0809,0.0846
2011-04-08 19:00,0.0872,0.0814,0.0842
2011-04-08 20:00,0.0880,0.0812,0.0844
2011-04-08 21:00,0.0871,0.0814,0.0840
2011-04-08 22:00,0.0870,0.0808,0.0842
2011-04-08 23:00,0.0873,0.0817,0.0845
2011-04-09 00:00,0.0868,0.0817,0.0842
2011-04-09 01:00,0.0870,0.0808,0.0845
2011-04-09 02:00,0.0864,0.0815,0.0842
2011-04-09 03:00,0.0864,0.0809,0.0839
2011-04-09 04:00,0.0876,0.0812,0.0840
2011-04-09 05:00,0.0867,0.0810,0.0838
2011-04-09 06:00,0.0869,0.0819,0.0839
2011-04-09 07:00,0.0868,0.0809,0.0838
2011-04-09 08:00,0.0882,0.0813,0.0838
2011-04-09 09:00,0.0873,0.0804,0.0841
2011-04-09 10:00,0.0876,0.0806,0.0846
2011-04-09 11:00,0.0875,0.0816,0.0847
2011-04-09 12:00,0.0874,0.0810,0.0843
2011-04-09 13:00,0.0864,0.0805,0.0838
2011-04-09 14:00,0.0882,0.0813,0.0836
2011-04-09 15:00,0.0858,0.0807,0.0834
2011-04-09 16:00,0.0858,0.0808,0.0834
2011-04-09 17:00,0.0864,0.0799,0.0835
2011-04-09 18:00,0.0875,0.0803,0.0840
2011-04-09 19:00,0.0857,0.0812,0.0835
2011-04-09 20:00,0.0864,0.0811,0.0838
2011-04-09 21:00,0.0857,0.0805,0.0833
2011-04-09 22:00,0.0866,0.0809,0.0832
2011-04-09 23:00,0.0863,0.0802,0.0834
2011-04-10 00:00,0.0864,0.0809,0.0834
2011-04-10 01:00,0.0871,0.0797,0.0832
2011-04-10 02:00,0.0856,0.0798,0.0831
2011-04-10 03:00,0.0878,0.0805,0.0825
2011-04-10 04:00,0.0853,0.0791,0.0826
2011-04-10 05:00,0.0852,0.0792,0.0825
2011-04-10 06:00,0.0844,0.0801,0.0824
2011-04-10 07:00,0.0856,0.0797,0.0829
2011-04-10 08:00,0.0872,0.0803,0.0833
2011-04-10 09:00,0.0870,0.0798,0.0830